Temperature
21 22 21 21 21 21 21 21 20 20 20 20 20 20 20 19 19 19 20 19 19 19 18 18 17 17 17 17 16 16 16 16 16 16 15 15 15 15 15 15 15 15 15 15
22 21 21 21 21 21 21 20 20 20 20 20 20 20 20 20 19 20 20 20 19 19 18 18 17 17 17 17 17 16 16 16 16 16 15 15 15 15 15 15 15 15 15 15
21 21 21 21 21 21 20 20 20 20 20 20 20 20 20 20 20 19 19 20 20 19 19 18 18 17 17 17 17 17 16 16 16 16 15 15 15 15 15 15 15 15 15 15
21 21 21 21 21 21 20 20 20 20 20 20 21 20 21 21 20 20 20 20 20 19 19 18 18 18 17 17 17 17 16 16 16 16 16 15 15 15 15 15 15 15 15 15
21 21 21 21 21 21 20 20 20 20 20 21 21 21 22 21 21 21 21 20 20 19 19 18 18 18 17 17 17 17 16 16 16 16 16 15 15 15 15 15 15 15 15 15
21 21 21 21 21 21 20 20 20 21 21 21 21 21 22 22 22 22 22 21 20 19 19 18 18 18 17 17 17 17 17 16 16 16 16 16 15 15 15 15 15 15 15 15
21 21 21 21 21 20 21 21 20 20 21 21 22 22 22 24 23 23 22 21 20 20 19 19 18 18 17 17 17 17 17 17 16 16 16 16 16 15 15 15 15 15 15 15
22 21 21 21 21 21 21 21 21 21 21 22 22 22 24 24 23 22 22 21 20 20 19 19 18 18 17 17 17 17 17 17 16 16 16 16 16 16 15 15 15 15 15 15
22 21 21 21 21 22 21 22 22 22 22 22 23 23 24 23 23 22 21 21 20 20 19 19 18 18 18 17 18 17 17 17 17 16 16 16 16 16 15 15 15 15 15 15
23 22 21 21 21 21 22 22 22 22 22 22 23 23 24 24 23 23 22 21 20 20 19 18 18 18 18 18 18 17 17 17 17 16 16 16 16 16 16 15 15 15 15 15
23 23 22 22 22 22 21 22 22 22 22 22 22 23 24 23 23 23 22 21 20 19 19 18 18 18 18 18 18 18 17 17 17 16 16 16 16 16 16 16 15 15 15 15
23 23 23 22 22 22 22 22 22 22 22 22 23 23 24 23 23 22 22 21 20 19 19 18 18 18 18 18 18 17 17 17 17 17 16 16 16 16 16 16 15 15 15 15
23 23 22 22 22 22 22 22 22 22 23 23 23 24 24 24 23 22 21 21 20 19 18 18 18 18 18 18 18 18 17 17 17 17 17 16 16 16 16 15 15 15 15 15
23 24 23 22 23 23 22 22 22 22 23 23 23 24 24 24 23 22 21 20 20 19 18 18 18 18 18 18 18 18 17 17 17 17 17 16 16 16 16 15 15 15 15 15
23 24 24 23 23 23 23 22 22 22 23 23 24 24 24 24 23 22 21 20 19 19 18 18 18 18 18 18 18 18 18 17 17 17 17 17 16 16 16 16 15 15 15 15
23 23 24 23 23 23 22 23 22 22 23 23 23 24 25 23 23 22 21 20 20 19 19 18 18 18 18 18 18 18 18 17 17 17 17 17 16 16 16 16 15 15 15 15
23 24 23 23 23 23 23 23 23 23 23 23 23 24 24 24 23 22 21 20 20 19 19 19 19 18 18 18 18 18 18 17 17 17 17 17 16 16 16 15 15 15 15 15
23 23 23 23 23 22 24 24 23 23 24 24 24 24 24 23 22 21 20 20 20 19 19 19 19 19 18 18 18 18 17 17 17 17 17 17 16 16 16 15 15 15 15 15
23 23 23 23 22 23 24 24 23 23 24 25 24 24 23 22 22 22 20 20 20 20 19 19 19 19 18 18 18 18 17 17 17 17 17 16 16 16 16 16 15 15 15 15
21 23 23 22 22 22 24 24 23 24 24 25 24 24 23 22 24 23 20 20 19 19 19 19 19 18 18 18 18 17 17 17 17 17 16 16 16 16 16 15 15 15 15 14
21 22 22 22 22 23 24 23 22 23 24 24 23 23 23 23 24 22 20 19 19 19 19 19 19 18 18 18 18 17 17 17 16 16 16 16 16 16 15 15 15 15 14 14
23 22 22 22 22 23 23 22 24 25 24 23 23 22 22 22 21 20 19 19 19 19 19 19 18 18 18 18 17 17 17 17 16 16 16 16 16 16 15 15 15 15 14 14
23 23 23 23 23 23 21 22 22 22 22 22 22 21 21 20 20 19 19 19 19 19 19 19 18 18 18 18 17 17 17 17 16 16 16 16 15 15 15 15 14 14 14 14
22 21 22 22 23 22 21 21 20 20 21 21 20 20 20 20 20 19 19 19 19 19 19 18 18 18 17 17 17 17 16 16 16 16 16 15 15 15 15 14 14 14 14 13
22 21 22 22 23 21 20 20 20 20 20 20 20 20 20 20 19 19 19 18 18 18 18 18 18 17 17 17 16 16 16 16 16 15 15 15 15 14 14 14 14 14 13 13
21 21 22 23 23 23 22 20 20 20 20 20 19 19 19 19 19 19 19 18 18 18 18 17 17 17 17 16 16 16 16 15 15 15 15 15 14 14 14 14 13 13 13 13
Wind_Speed
3 3 3 3 2 3 5 5 4 3 3 4 5 6 7 9 10 10 10 10 9 9 8 8 8 7 7 7 6 6 6 5 5 4 3 3 3 3 4 5 6 6 6 6
5 5 4 4 5 5 5 6 5 4 3 3 5 5 7 9 10 10 10 10 10 10 10 9 9 8 8 7 7 6 6 5 4 3 3 2 3 3 4 4 5 5 5 6
4 5 5 6 6 5 3 3 4 4 4 4 4 5 7 8 9 9 10 10 11 11 11 11 10 9 8 8 7 6 6 6 5 4 3 3 3 2 3 3 3 4 5 5
3 3 4 5 4 4 3 2 4 4 4 3 4 3 7 10 10 11 12 12 13 12 11 11 11 10 9 8 7 7 6 6 5 5 4 3 2 2 2 2 3 3 4 5
3 3 4 3 3 2 4 4 3 2 2 2 3 3 4 9 11 13 14 14 14 14 13 13 12 11 10 9 8 7 7 6 5 5 4 3 2 2 2 2 3 3 4 4
3 2 1 2 3 4 7 5 3 2 3 2 3 3 2 7 11 12 14 15 15 15 14 13 11 10 10 9 8 7 7 6 5 5 5 4 3 3 3 2 2 2 2 3
4 4 3 4 5 5 4 3 2 3 3 1 2 3 2 3 6 9 12 15 16 16 15 14 13 12 11 10 9 8 8 7 6 6 5 5 4 4 3 3 2 2 2 2
3 4 4 4 3 4 4 3 2 1 0 1 3 2 0 1 3 6 8 11 15 15 14 14 14 13 12 11 10 9 9 8 7 7 6 5 5 4 3 3 2 2 1 2
2 3 4 2 2 3 3 3 2 2 1 1 2 1 1 2 3 5 8 10 14 15 15 14 13 13 12 12 11 10 9 8 8 7 6 5 5 5 4 4 3 2 2 2
1 3 4 4 4 2 2 2 3 3 1 1 2 2 1 1 1 4 7 10 13 14 15 14 13 12 11 11 10 10 9 8 8 7 6 5 5 5 4 4 4 3 3 3
4 3 5 6 5 4 4 4 3 2 3 2 1 2 2 3 2 3 5 9 12 14 14 14 13 12 11 10 10 9 9 8 7 7 6 6 5 5 5 4 4 4 3 4
4 3 4 4 2 2 4 4 4 3 1 2 2 1 2 2 2 3 4 7 9 11 12 12 12 12 11 11 10 10 9 8 8 7 7 7 6 6 5 5 5 5 4 4
6 4 3 5 5 5 5 5 5 4 3 3 2 2 2 1 1 2 5 7 9 10 11 11 11 11 11 11 10 10 9 9 8 7 7 7 7 6 6 6 5 5 5 5
5 4 4 2 0 3 5 7 8 7 4 3 3 3 2 2 1 2 5 8 9 10 11 11 11 11 11 11 10 10 9 8 8 8 7 7 7 6 6 6 5 5 5 5
5 5 5 3 2 4 6 7 9 10 8 6 4 5 5 3 1 2 5 8 9 10 11 12 12 11 11 10 10 10 9 9 8 8 8 7 7 6 6 6 6 5 5 5
5 5 5 5 4 5 6 8 10 11 10 10 9 8 3 2 2 3 6 9 10 10 11 12 12 12 12 12 11 10 9 9 9 9 8 7 6 6 6 6 6 5 5 5
6 6 6 5 4 5 7 7 9 8 9 9 8 5 2 2 2 3 6 9 10 10 11 11 12 12 12 12 11 11 10 10 10 9 8 7 7 7 7 6 6 6 6 5
7 7 5 5 5 7 2 1 5 8 9 10 9 6 4 3 2 2 4 8 9 9 10 10 10 10 10 11 10 10 10 10 10 9 8 8 7 7 7 7 7 6 6 5
7 7 6 6 7 7 4 4 5 6 7 8 9 7 4 3 4 4 4 6 7 8 9 8 9 9 10 10 10 10 10 10 9 9 9 8 8 8 8 7 7 7 6 6
6 8 8 7 8 7 4 3 4 5 6 5 7 6 5 6 5 3 4 5 6 6 7 7 8 8 9 9 10 10 10 10 10 9 9 9 8 8 8 8 7 6 6 6
9 8 11 11 10 7 2 4 6 6 2 2 5 6 8 7 2 4 5 5 5 6 7 7 8 8 8 9 10 10 9 9 9 8 8 8 8 8 8 7 6 6 6 6
11 9 11 10 10 8 5 7 7 3 1 1 3 5 7 5 4 5 6 6 6 7 7 8 7 7 7 8 9 9 9 8 7 7 7 7 7 6 6 7 6 6 6 6
11 10 8 9 7 2 5 6 4 3 3 3 3 4 6 6 6 6 6 6 6 7 7 6 7 7 7 7 8 8 7 7 7 7 7 7 7 6 6 7 7 6 6 6
8 6 7 8 8 7 6 7 6 6 6 5 4 5 7 8 7 7 7 6 6 6 6 6 7 7 6 6 6 6 6 7 7 7 7 6 6 6 6 5 5 5 5 5
8 8 8 10 8 5 6 7 5 4 4 4 4 6 7 8 8 8 7 7 6 6 6 6 6 6 6 6 6 5 6 7 7 7 6 6 6 6 6 5 4 5 5 4
9 9 10 9 8 6 5 4 4 3 4 4 5 6 7 7 8 8 7 7 6 6 6 6 6 6 6 6 5 5 5 6 6 6 6 5 5 5 5 5 4 2 2 2
Wind_Direction
101 122 115 116 117 123 145 140 127 106 133 164 157 154 168 177 183 181 179 179 181 180 177 175 173 169 166 166 162 154 152 142 137 124 117 107 91 76 67 55 46 44 46 44
131 98 90 107 114 129 137 132 116 109 128 165 163 165 174 187 195 192 189 188 186 185 183 181 182 177 179 174 173 168 166 161 155 138 123 107 99 83 73 66 54 44 48 44
93 102 122 128 137 140 140 148 126 126 134 151 167 176 188 190 198 202 206 200 195 194 191 186 187 184 185 184 180 177 175 169 168 156 135 127 118 122 106 86 64 48 47 47
94 123 148 139 140 153 129 132 140 150 172 168 210 193 194 193 199 206 205 204 201 198 196 191 191 191 189 186 181 180 178 176 172 169 167 160 155 123 91 84 88 82 65 58
116 139 152 143 134 150 111 129 141 166 196 195 201 230 180 187 206 212 207 205 203 200 198 196 195 194 189 182 181 182 177 179 180 185 180 188 166 124 119 115 108 94 77 67
121 150 172 130 121 128 135 139 143 197 226 216 195 228 188 192 210 208 203 202 201 201 200 199 194 190 188 182 180 183 183 184 183 190 193 196 177 164 154 150 131 118 103 85
140 141 138 147 141 149 183 192 187 189 203 168 145 238 232 190 210 209 203 199 198 197 197 195 192 192 190 187 186 186 188 188 187 193 200 199 193 190 183 173 153 147 119 102
163 145 160 182 198 182 197 249 292 290 208 131 187 231 152 148 216 210 204 198 194 193 195 194 193 193 193 191 190 190 193 193 190 197 202 202 194 199 190 189 179 168 134 112
169 123 132 163 197 197 190 229 308 296 261 232 167 193 205 177 188 191 192 190 191 191 192 192 192 192 192 192 193 193 195 196 194 199 203 204 201 199 192 192 190 177 166 150
183 150 153 158 173 185 245 212 230 261 255 169 155 177 102 117 170 175 186 189 189 188 189 189 189 189 189 189 191 193 198 198 194 196 199 200 203 199 194 193 191 189 183 171
203 180 165 182 210 193 183 203 237 259 291 296 149 100 36 333 294 216 194 188 186 186 187 187 186 187 185 184 186 190 193 194 192 193 191 190 192 192 193 196 191 191 185 180
200 213 183 179 158 238 231 233 233 261 253 288 290 73 59 319 292 220 195 181 180 183 185 185 182 181 182 184 187 191 193 193 192 191 188 189 184 187 193 193 193 191 188 189
177 208 189 172 177 190 213 218 229 252 262 253 258 89 75 32 93 166 178 174 173 177 180 181 181 182 184 187 189 192 193 193 189 187 188 187 188 192 196 195 190 193 194 193
203 225 246 248 303 190 206 207 216 228 247 250 257 306 339 14 67 141 165 170 172 175 178 180 183 186 187 189 191 193 194 191 187 186 190 193 195 197 198 193 190 192 194 196
218 237 238 255 253 220 226 222 217 228 250 267 287 295 301 318 290 181 168 168 171 175 180 184 187 188 188 190 192 192 192 191 188 189 193 198 197 194 192 185 190 190 192 200
219 234 228 227 219 225 237 235 229 233 244 254 269 279 285 284 202 182 173 173 177 181 186 187 189 190 191 192 192 191 191 192 191 192 194 193 194 189 190 190 189 187 189 196
204 223 231 235 203 236 244 234 226 225 226 236 248 255 251 215 188 191 183 184 186 185 186 188 190 191 193 194 192 190 193 191 192 194 192 189 189 188 192 190 188 189 189 188
215 223 236 246 227 245 259 146 222 237 244 235 248 257 248 239 212 196 195 191 189 186 185 187 188 188 191 190 188 190 190 191 194 195 192 190 191 190 190 191 193 198 198 193
225 220 232 241 247 254 252 222 211 228 245 235 237 240 226 188 177 172 175 192 192 186 184 183 182 180 182 182 182 183 185 189 193 195 196 193 194 192 192 195 199 200 200 200
205 219 232 232 243 251 242 172 183 224 245 222 215 215 190 182 203 170 150 171 179 174 172 171 170 171 173 177 181 183 186 190 196 198 200 196 194 194 197 201 203 199 200 206
193 206 223 234 242 251 241 148 174 220 242 152 205 206 189 198 211 124 137 145 154 157 158 161 164 167 172 174 179 186 190 197 199 197 196 194 194 196 198 200 201 200 200 205
215 215 220 226 235 239 164 169 205 258 10 210 215 203 194 185 137 134 139 139 144 146 150 157 160 162 167 174 181 189 196 197 188 185 188 191 191 191 192 194 199 201 200 203
221 225 226 226 236 241 185 217 258 293 265 259 231 202 184 172 162 151 144 143 144 145 147 154 156 154 159 170 182 190 189 182 178 181 186 188 188 188 190 191 192 196 202 209
211 211 219 230 239 236 232 243 251 254 258 262 241 204 185 176 164 156 149 146 145 145 146 153 155 155 157 167 181 187 176 176 179 183 186 186 187 186 188 190 195 198 203 210
215 194 216 233 238 234 233 230 239 249 248 238 213 194 185 173 165 160 155 151 148 144 147 155 159 158 157 160 167 172 174 179 185 187 185 187 187 187 189 191 198 207 209 215
207 206 218 234 229 226 225 207 210 221 222 205 188 177 173 171 164 160 155 152 151 150 150 153 153 156 158 157 159 161 170 183 189 187 186 185 184 185 187 189 189 173 219 194
Height
1525 1524 1525 1525 1525 1527 1529 1532 1536 1537 1538 1539 1540 1542 1545 1548 1550 1551 1553 1555 1557 1560 1562 1564 1565 1566 1568 1569 1571 1571 1572 1572 1573 1573 1573 1573 1573 1573 1572 1571 1570 1569 1568 1568
1524 1527 1528 1528 1528 1529 1530 1534 1537 1539 1539 1539 1541 1542 1544 1546 1548 1549 1551 1553 1556 1559 1561 1563 1565 1566 1568 1569 1570 1572 1572 1573 1573 1573 1574 1574 1573 1573 1572 1572 1571 1570 1570 1569
1525 1529 1529 1529 1530 1532 1533 1535 1536 1539 1540 1540 1541 1544 1543 1544 1547 1549 1550 1552 1554 1557 1559 1562 1564 1565 1567 1568 1570 1571 1572 1573 1573 1574 1574 1574 1574 1574 1574 1573 1572 1571 1571 1570
1527 1529 1530 1530 1531 1531 1536 1535 1536 1538 1539 1541 1541 1545 1539 1539 1542 1545 1547 1550 1551 1555 1557 1560 1562 1564 1566 1568 1569 1571 1572 1573 1573 1574 1574 1575 1575 1575 1574 1574 1573 1572 1571 1571
1528 1529 1530 1531 1532 1531 1535 1535 1536 1537 1538 1539 1538 1541 1536 1535 1538 1539 1542 1545 1548 1552 1555 1557 1560 1562 1565 1567 1568 1570 1571 1572 1573 1574 1574 1574 1575 1575 1575 1574 1574 1573 1572 1571
1528 1531 1531 1531 1533 1533 1535 1536 1537 1536 1536 1542 1536 1538 1536 1529 1530 1532 1536 1540 1544 1548 1552 1555 1558 1560 1563 1565 1567 1568 1570 1571 1572 1573 1574 1574 1575 1575 1575 1575 1574 1574 1573 1572
1529 1530 1531 1532 1533 1535 1534 1537 1543 1544 1543 1539 1532 1535 1530 1521 1524 1527 1531 1535 1540 1545 1549 1552 1555 1558 1560 1563 1565 1567 1569 1570 1571 1572 1573 1574 1574 1575 1575 1575 1574 1574 1574 1573
1529 1533 1530 1530 1530 1532 1533 1534 1542 1547 1543 1536 1532 1531 1522 1520 1523 1526 1528 1532 1536 1541 1545 1549 1552 1555 1558 1560 1563 1565 1567 1569 1570 1572 1573 1574 1574 1574 1574 1574 1574 1574 1574 1573
1524 1531 1529 1530 1530 1530 1532 1532 1530 1532 1533 1535 1528 1524 1519 1519 1521 1523 1526 1529 1533 1537 1541 1545 1549 1552 1555 1558 1560 1563 1565 1567 1569 1570 1572 1572 1573 1573 1573 1573 1574 1574 1573 1573
1519 1528 1528 1530 1530 1532 1530 1529 1531 1532 1538 1538 1531 1525 1521 1517 1518 1520 1523 1526 1530 1534 1539 1542 1546 1549 1552 1555 1558 1561 1563 1565 1567 1568 1570 1571 1571 1572 1572 1573 1573 1573 1573 1572
1518 1523 1529 1528 1528 1528 1531 1531 1530 1529 1530 1535 1537 1528 1515 1516 1517 1518 1521 1524 1527 1531 1535 1539 1543 1546 1550 1553 1556 1558 1561 1563 1565 1566 1568 1569 1570 1570 1571 1571 1571 1571 1571 1571
1518 1518 1524 1524 1524 1526 1526 1526 1527 1532 1531 1530 1530 1527 1514 1515 1517 1518 1520 1523 1526 1529 1533 1537 1541 1544 1548 1551 1554 1556 1559 1561 1563 1564 1566 1567 1568 1569 1569 1569 1570 1570 1570 1570
1517 1519 1526 1528 1530 1528 1526 1525 1526 1525 1526 1527 1528 1525 1513 1514 1516 1518 1519 1522 1525 1528 1531 1535 1538 1542 1545 1548 1551 1554 1556 1559 1560 1562 1564 1565 1566 1567 1567 1568 1568 1568 1569 1569
1517 1514 1520 1527 1522 1520 1523 1525 1525 1525 1525 1524 1522 1518 1513 1512 1514 1517 1519 1521 1524 1527 1530 1533 1536 1539 1542 1546 1549 1552 1554 1556 1558 1560 1561 1563 1564 1565 1565 1566 1566 1567 1567 1568
1515 1514 1514 1514 1516 1518 1519 1521 1522 1523 1519 1520 1516 1515 1512 1511 1514 1516 1518 1520 1523 1525 1528 1531 1534 1537 1540 1543 1546 1549 1551 1553 1555 1557 1559 1560 1562 1562 1563 1564 1564 1565 1565 1566
1513 1512 1513 1515 1515 1516 1518 1517 1517 1519 1518 1517 1516 1514 1509 1512 1514 1515 1517 1519 1521 1523 1526 1528 1531 1534 1537 1540 1543 1546 1548 1551 1553 1554 1556 1557 1559 1560 1560 1561 1562 1563 1563 1564
1510 1511 1514 1515 1514 1516 1518 1511 1512 1513 1512 1513 1513 1509 1509 1511 1513 1514 1515 1517 1519 1521 1523 1526 1528 1531 1534 1537 1540 1543 1545 1548 1550 1552 1553 1555 1556 1557 1558 1559 1560 1561 1561 1562
1508 1509 1511 1513 1516 1525 1509 1504 1506 1508 1507 1507 1507 1507 1509 1510 1512 1513 1514 1515 1517 1519 1521 1523 1526 1529 1531 1535 1537 1540 1543 1545 1547 1549 1550 1552 1553 1554 1555 1556 1557 1558 1559 1560
1507 1509 1511 1513 1516 1513 1506 1503 1505 1507 1505 1503 1504 1506 1508 1510 1511 1511 1512 1513 1515 1517 1519 1521 1524 1526 1529 1532 1535 1537 1540 1542 1544 1546 1547 1549 1550 1552 1553 1553 1555 1556 1557 1557
1508 1507 1509 1512 1517 1518 1504 1500 1503 1505 1505 1499 1502 1503 1506 1507 1506 1508 1510 1511 1513 1515 1517 1520 1522 1525 1527 1530 1532 1535 1537 1539 1541 1542 1544 1546 1547 1549 1550 1551 1552 1553 1554 1555
1507 1507 1508 1509 1511 1504 1497 1501 1504 1509 1502 1498 1500 1501 1503 1504 1504 1507 1508 1510 1511 1513 1515 1518 1520 1522 1525 1527 1530 1532 1534 1536 1538 1540 1542 1543 1544 1546 1547 1548 1549 1550 1551 1552
1496 1501 1503 1504 1509 1506 1497 1500 1499 1496 1496 1497 1499 1500 1502 1503 1505 1506 1507 1509 1510 1512 1514 1516 1518 1521 1523 1525 1527 1530 1531 1534 1535 1537 1539 1540 1542 1543 1544 1545 1546 1547 1548 1548
1490 1491 1492 1494 1496 1493 1495 1496 1496 1496 1497 1497 1498 1499 1501 1502 1504 1505 1506 1508 1509 1511 1513 1515 1517 1519 1521 1523 1525 1527 1529 1531 1532 1534 1536 1537 1539 1540 1541 1542 1543 1544 1544 1545
1487 1491 1491 1491 1490 1492 1493 1494 1494 1495 1495 1496 1496 1497 1499 1501 1502 1504 1506 1507 1509 1510 1512 1513 1515 1517 1519 1521 1523 1525 1527 1528 1530 1532 1533 1534 1536 1537 1538 1538 1539 1540 1541 1541
1483 1488 1487 1487 1487 1490 1490 1491 1492 1492 1493 1493 1494 1495 1497 1499 1501 1502 1504 1506 1508 1509 1511 1512 1514 1516 1517 1519 1521 1522 1524 1526 1527 1529 1530 1532 1533 1533 1534 1535 1536 1536 1537 1538
1481 1483 1483 1483 1483 1484 1486 1488 1489 1490 1491 1491 1492 1494 1495 1497 1499 1501 1503 1505 1506 1508 1510 1511 1513 1514 1516 1518 1519 1520 1522 1523 1525 1526 1527 1528 1529 1530 1531 1532 1533 1533 1534 1534